TimeCDT,TemperatureF,Dew PointF,Humidity,Sea Level PressureIn,VisibilityMPH,Wind Direction,Wind SpeedMPH,Gust SpeedMPH,PrecipitationIn,Events,Conditions,WindDirDegrees,DateUTC
12:53 AM,44.1,28.9,55,30.07,10.0,NNW,8.1,-,N/A,,Clear,330,2013-03-25 05:53:00
1:53 AM,42.1,30.0,62,30.10,10.0,NNW,5.8,-,N/A,,Clear,330,2013-03-25 06:53:00
2:53 AM,39.9,30.0,68,30.10,10.0,Calm,Calm,-,N/A,,Clear,0,2013-03-25 07:53:00
3:53 AM,39.0,30.0,70,30.09,10.0,NNW,3.5,-,N/A,,Clear,330,2013-03-25 08:53:00
4:53 AM,37.9,28.9,70,30.10,10.0,NNW,3.5,-,N/A,,Clear,340,2013-03-25 09:53:00
5:53 AM,36.0,30.0,79,30.13,10.0,Calm,Calm,-,N/A,,Clear,0,2013-03-25 10:53:00
6:53 AM,36.0,28.9,76,30.17,10.0,Calm,Calm,-,N/A,,Clear,0,2013-03-25 11:53:00
7:53 AM,37.0,28.9,73,30.19,10.0,Calm,Calm,-,N/A,,Clear,0,2013-03-25 12:53:00
8:53 AM,39.9,28.0,63,30.21,10.0,Variable,6.9,-,N/A,,Clear,0,2013-03-25 13:53:00
9:53 AM,44.1,24.1,45,30.24,10.0,NNW,9.2,-,N/A,,Clear,340,2013-03-25 14:53:00
10:53 AM,48.0,21.0,34,30.26,10.0,Variable,5.8,-,N/A,,Clear,0,2013-03-25 15:53:00
11:53 AM,51.1,19.0,28,30.25,10.0,NW,9.2,-,N/A,,Clear,310,2013-03-25 16:53:00
12:53 PM,53.1,17.1,24,30.22,10.0,NW,15.0,20.7,N/A,,Clear,320,2013-03-25 17:53:00
1:53 PM,55.0,18.0,23,30.20,10.0,WNW,10.4,19.6,N/A,,Clear,300,2013-03-25 18:53:00
2:53 PM,55.9,19.9,25,30.17,10.0,NW,11.5,25.3,N/A,,Clear,320,2013-03-25 19:53:00
3:53 PM,57.0,19.9,24,30.15,10.0,WNW,12.7,23.0,N/A,,Clear,290,2013-03-25 20:53:00
4:53 PM,57.9,19.0,22,30.15,10.0,WNW,11.5,23.0,N/A,,Clear,300,2013-03-25 21:53:00
5:53 PM,57.9,19.9,23,30.15,10.0,WNW,9.2,19.6,N/A,,Clear,300,2013-03-25 22:53:00
6:53 PM,55.9,21.0,26,30.16,10.0,Variable,6.9,-,N/A,,Clear,0,2013-03-25 23:53:00
7:53 PM,53.1,21.9,30,30.19,10.0,NW,3.5,-,N/A,,Clear,310,2013-03-26 00:53:00
8:53 PM,51.1,21.9,32,30.22,10.0,NW,3.5,-,N/A,,Clear,320,2013-03-26 01:53:00
9:53 PM,48.9,23.0,36,30.24,10.0,WNW,6.9,-,N/A,,Clear,300,2013-03-26 02:53:00
10:53 PM,48.0,21.0,34,30.27,10.0,NNW,5.8,-,N/A,,Clear,340,2013-03-26 03:53:00
11:53 PM,46.0,21.9,39,30.29,10.0,NNW,4.6,-,N/A,,Clear,340,2013-03-26 04:53:00